{"data":{"norad_id":58509,"epoch":"2026-09-20T19:41:22.574688Z","epoch_age_seconds":119130,"freshness":"FRESH","line1":"1 58509U 23191B   26263.82040017  .00000408  00000+0  24364-4 0  9998","line2":"2 58509  43.0020  88.2877 0001092 267.3246  92.7480 15.27577699155234","mean_motion":15.27577699,"eccentricity":0.0001092,"inclination_deg":43.002,"raan_deg":88.2877,"arg_perigee_deg":267.3246,"mean_anomaly_deg":92.748,"bstar":2.4364e-5,"rev_number":15523,"period_min":94.266890708255,"perigee_km":482.306743796,"apogee_km":483.80522834416,"semimajor_km":6861.1929860701,"source":"CELESTRAK","updated_at":"2026-09-21T09:00:33.906684Z"}}